Home   Weather   Buxar   Past weeks
Flag for India

Past Weather in Buxar, Bihar, India — Yesterday and Last 2 Weeks

Now
79 °F

Warm.


Feels Like: 83 °F
Forecast: 93 / 79 °F
Wind: 5 mph from East

Location: Lucknow / Amausi

Current Time: Aug 26, 2019 at 9:15:52 am

Latest Report: Aug 26, 2019 at 8:00 am


Visibility: N/A

Pressure: 29.62 "Hg

Humidity: 94%

Dew Point: 77 °F

Location of BuxarLocation

Past Weather in Buxar — Graph

°F

Buxar Temperature Yesterday

Maximum temperature yesterday: 91 °F (at 3:00 pm)
Minimum temperature yesterday: 75 °F (at 9:30 pm)
Average temperature yesterday: 84 °F

High & Low Weather Summary for the Past Weeks

 TemperatureHumidityPressure
High93 °F (Aug 12, 2:30 pm)100% (Aug 11, 1:30 pm)29.71 "Hg (Aug 11, 1:30 pm)
Low75 °F (Aug 25, 9:30 pm)59% (Aug 18, 3:00 pm)29.45 "Hg (Aug 12, 4:00 pm)
Average84 °F89%29.59 "Hg
* Reported Aug 11 7:30 am — Aug 26 7:30 am, Buxar. Weather by CustomWeather, © 2019

Note: Actual official high and low records may vary slightly from our data, if they occured in-between our weather recording intervals... More about our weather records

Advertising

Buxar Weather History for the Previous 24 Hours

Scroll right to see more
 ConditionsComfort  
Time TempWeatherWind HumidityBarometerVisibility
7:30 am
Mon, Aug 26
82 °FFog.6 mph94%29.62 "Hg1 mi
7:00 am79 °FFog.3 mph94%29.62 "Hg1 mi
6:00 am79 °FFog.3 mph94%29.62 "Hg1 mi
5:30 am79 °FFog.No wind94%29.62 "Hg1 mi
5:00 am79 °FFog.3 mph94%29.62 "Hg1 mi
4:30 am79 °FFog.2 mph94%29.62 "Hg1 mi
4:00 am79 °FFog.2 mph94%29.62 "Hg1 mi
3:30 am79 °FFog.2 mph94%29.62 "Hg1 mi
3:00 am79 °FFog.2 mph94%29.62 "Hg1 mi
2:30 am79 °FFog.No wind94%29.62 "Hg1 mi
2:00 am79 °FFog.No wind94%29.62 "Hg1 mi
1:30 am79 °FFog.3 mph94%29.62 "Hg1 mi
1:00 am77 °FFog.5 mph100%29.62 "Hg1 mi
12:30 am77 °FFog.5 mph100%29.62 "Hg1 mi
12:00 am77 °FFog.6 mph100%29.62 "Hg1 mi
11:30 pm
Sun, Aug 25
77 °FLight rain. Mostly cloudy.3 mph100%29.62 "Hg1 mi
11:00 pm77 °FThunderstorms. Mostly cloudy.7 mph100%29.65 "Hg1 mi
10:30 pm77 °FThunderstorms. Mostly cloudy.7 mph100%29.65 "Hg1 mi
10:00 pm77 °FThunderstorms. Mostly cloudy.7 mph100%29.68 "Hg1 mi
9:30 pm75 °FThunderstorms. Mostly cloudy.12 mph100%29.68 "Hg1 mi
8:30 pm86 °FFog.5 mph89%29.62 "Hg2 mi
8:00 pm86 °FFog.5 mph89%29.62 "Hg2 mi
7:30 pm86 °FFog.5 mph89%29.59 "Hg2 mi
7:00 pm86 °FFog.3 mph89%29.59 "Hg2 mi
6:00 pm88 °FFog.5 mph79%29.53 "Hg3 mi
5:30 pm90 °FScattered clouds.7 mph75%29.56 "Hg3 mi
5:00 pm90 °FScattered clouds.7 mph75%29.53 "Hg3 mi
4:30 pm90 °FScattered clouds.9 mph71%29.53 "Hg3 mi
4:00 pm91 °FScattered clouds.8 mph67%29.53 "Hg3 mi
3:30 pm90 °FScattered clouds.8 mph71%29.53 "Hg3 mi
3:00 pm91 °FBroken clouds.9 mph71%29.53 "Hg3 mi
2:30 pm90 °FBroken clouds.8 mph75%29.56 "Hg3 mi
2:00 pm90 °FBroken clouds.8 mph75%29.56 "Hg3 mi
1:30 pm90 °FBroken clouds.12 mph79%29.59 "Hg2 mi
1:00 pm90 °FFog.10 mph75%29.59 "Hg2 mi
12:30 pm90 °FFog.9 mph79%29.62 "Hg2 mi
12:00 pm90 °FFog.9 mph79%29.62 "Hg2 mi
11:30 am88 °FFog.8 mph84%29.65 "Hg2 mi
11:00 am86 °FFog.8 mph89%29.65 "Hg2 mi
10:30 am86 °FFog.9 mph89%29.65 "Hg2 mi
10:00 am86 °FFog.9 mph89%29.65 "Hg2 mi
9:30 am86 °FFog.7 mph89%29.65 "Hg2 mi
9:00 am84 °FFog.8 mph94%29.65 "Hg2 mi
Weather by CustomWeather, © 2019

See weather overview